Satellite-Ground Cal/Val Region Overpasses Predictions

Prediction of Satellite NPP Overpassing Cal/Val Region: PacNW

Region Location: (Latitude: 10.00, Longitude: 139.50) to (Latitude: 22.70, Longitude: 165.60).

Table of predicted overpasses for the next 14.0 days since TLE Epoch: 11/22/2014
Interval Starting Time Starting Location Ending Time Ending Location
1 11/22/2014 03:25:47 ( 10.01, 150.33) 11/22/2014 03:29:23 ( 22.69, 147.33)
2 11/22/2014 15:57:41 ( 22.64, 147.52) 11/22/2014 16:01:16 ( 10.02, 144.53)
3 11/23/2014 03:06:45 ( 10.01, 155.08) 11/23/2014 03:10:21 ( 22.70, 152.08)
4 11/23/2014 15:38:37 ( 22.70, 152.29) 11/23/2014 15:42:13 ( 10.02, 149.28)
5 11/24/2014 02:47:42 ( 10.02, 159.84) 11/24/2014 02:51:17 ( 22.64, 156.85)
6 11/24/2014 15:19:35 ( 22.69, 157.04) 11/24/2014 15:23:11 ( 10.01, 154.04)
7 11/25/2014 02:28:40 ( 10.03, 164.59) 11/25/2014 02:32:15 ( 22.65, 161.60)
8 11/25/2014 15:00:32 ( 22.68, 161.79) 11/25/2014 15:04:07 ( 10.06, 158.80)
9 11/26/2014 03:51:07 ( 10.05, 143.97) 11/26/2014 03:54:42 ( 22.67, 140.98)
10 11/26/2014 14:42:36 ( 18.80, 165.60) 11/26/2014 14:45:05 ( 10.05, 163.56)
11 11/26/2014 16:23:00 ( 22.66, 141.17) 11/26/2014 16:24:57 ( 15.80, 139.51)
12 11/27/2014 03:32:05 ( 10.06, 148.72) 11/27/2014 03:35:40 ( 22.68, 145.73)
13 11/27/2014 16:03:57 ( 22.65, 145.92) 11/27/2014 16:07:32 ( 10.03, 142.93)
14 11/28/2014 03:13:01 ( 10.01, 153.49) 11/28/2014 03:16:37 ( 22.69, 150.48)
15 11/28/2014 15:44:54 ( 22.70, 150.69) 11/28/2014 15:48:30 ( 10.02, 147.69)
16 11/29/2014 02:53:59 ( 10.02, 158.24) 11/29/2014 02:57:34 ( 22.65, 155.25)
17 11/29/2014 15:25:51 ( 22.68, 155.44) 11/29/2014 15:29:27 ( 10.00, 152.44)
18 11/30/2014 02:34:56 ( 10.04, 162.99) 11/30/2014 02:38:31 ( 22.66, 160.00)
19 11/30/2014 15:06:49 ( 22.67, 160.19) 11/30/2014 15:10:24 ( 10.04, 157.20)
20 12/01/2014 02:18:31 ( 19.28, 165.59) 12/01/2014 02:19:29 ( 22.68, 164.75)
21 12/01/2014 03:57:23 ( 10.01, 142.38) 12/01/2014 04:00:50 ( 22.16, 139.51)
22 12/01/2014 14:47:47 ( 22.65, 164.94) 12/01/2014 14:51:22 ( 10.03, 161.95)
23
